Terminal Aerodrome Forecast
Issued by NWS

Home | Current Version | Previous Version | Graphics & Text | Print | Product List | Glossary On
Versions: 1 2 3 4 5 6 7 8 9 10 11 12 13 14 15 16 17 18
000
FTUS43 KIWX 290538
TAFSBN
TAF
KSBN 290538Z 2906/3006 15004KT P6SM -SHRA OVC060
     FM291100 13010KT 4SM -RA BR OVC020
      TEMPO 2915/2919 2SM -RA BR OVC010=

USA.gov is the U.S. government's official web portal to all federal, state and local government web resources and services.